Location: B?lite?ti
(46.2833°N, 22.7333°E)
Time: 17:34:04
(UTC+00:00)

Cosmos 1758 Rocket - Pass Details

Date: 24 January 2021
Orbit: 601 x 636 km, 82.5° (Epoch: 28 February)

Event Time Altitude Azimuth Distance (km) Brightness Sun altitude
Rises 17:38:48 0° 194° (SSW) 2,896 7.2 -23.4°
Reaches altitude 10° 17:41:01 10° 197° (SSW) 1,999 6.4 -23.8°
Maximum altitude 17:45:26 69° 280° (W) 681 3.8 -24.6°
Enters shadow 17:47:33 30° 356° (N) 1,131 4.8 -25.0°
